www.pogodaiklimat.ru
ПОГОДА в Лоренсевилле
Время
и дата
22:56 20.04
23:56 20.04
00:56 21.04
01:56 21.04
02:56 21.04
03:56 21.04
04:56 21.04
05:56 21.04
06:56 21.04
07:56 21.04
08:56 21.04
09:56 21.04
10:56 21.04
11:56 21.04
12:56 21.04
13:56 21.04
14:56 21.04
15:56 21.04
16:56 21.04
17:56 21.04
18:56 21.04
19:56 21.04
20:56 21.04
21:56 21.04
22:56 21.04
23:56 21.04
00:56 22.04
01:56 22.04
02:56 22.04
03:56 22.04
04:56 22.04
05:56 22.04
06:56 22.04
07:56 22.04
08:56 22.04
09:56 22.04
10:56 22.04
11:56 22.04
12:56 22.04
13:56 22.04
14:56 22.04
15:56 22.04
16:56 22.04
17:56 22.04
18:56 22.04
19:56 22.04
20:56 22.04
21:56 22.04
Ветер
(напр.,м/с)
Видим. Явления Облачность Т
(С)
Тd
(С)
f
(%)
Тe
(С)
Тes
(С)
Комфортность P
(гПа)
Po
(гПа)
Тmin
(С)
Tmax
(С)
R
(мм)
R24
(мм)
S
(см)
штиль 0 16 км ясно +11.7 +8.9 83 +11 +11 1014.5 975.5
штиль 0 16 км 8/0 2400 м
[Ac]
+13.3 +8.9 75 +13 +13 1014.5 975.5
штиль 0 16 км ясно +11.7 +8.9 83 +11 +11 1014.1 975.2 +11.7 +20.0
З 1 16 км ясно +11.1 +8.9 86 +10 +10 1013.6 974.9
З 1 16 км ясно +12.8 +7.8 72 +11 +11 1013.2 974.2
штиль 0 16 км ясно +11.1 +7.2 77 +11 +11 1013.2 974.5
З 1 16 км ясно +12.2 +7.2 71 +11 +11 1013.3 974.5
З 2 16 км ясно +12.2 +6.1 66 +10 +10 1013.9 974.9
З 3
{4}
16 км ясно +12.2 +6.1 66 +10 +10 1014.6 975.8 +10.6 +13.3
З 2
{4}
16 км ясно +11.7 +4.4 61 +9 +10 1015.5 976.5
З 2
{4}
16 км ясно +13.3 +4.4 55 +12 +14 1015.6 976.5
нст 1
{4}
16 км ясно +13.3 +3.9 53 +12 +19 1016.2 977.2
З 3
{6}
16 км ясно +13.3 +2.2 47 +11 +15 1017.3 977.8
З 2
{4}
16 км ясно +12.8 +1.1 45 +11 +20 1017.4 978.1
З 3
{4}
16 км ясно +12.2 0.0 43 +10 +17 1017.6 978.1 +11.7 +13.9
З 3
{5}
16 км ясно +12.8 -0.6 40 +10 +16 1017.7 978.5
З 4
{5}
16 км ясно +12.2 -2.8 35 +10 +13 1017.8 978.5
З 4
{5}
16 км ясно +12.2 -2.8 35 +10 +12 1017.6 978.1
З 3
{4}
16 км ясно +12.2 -3.3 34 +10 +12 1018.0 978.8
СЗ 2
{4}
16 км ясно +11.1 -3.9 35 +9 +12 1018.5 979.1
З 2
{4}
16 км ясно +9.4 -4.4 37 +7 +8 1019.4 979.8 +9.4 +13.3
нст 1 16 км ясно +7.8 -3.9 43 +6 +6 1020.4 980.7
нст 1 16 км ясно +6.7 -3.9 47 +5 +5 1021.6 981.7
штиль 0 16 км ясно +5.6 -3.3 53 +5 +5 1022.3 982.4
З 1 16 км ясно +4.4 -3.3 57 +2 +2 1023.0 983.0
З 1 16 км ясно +3.9 -3.3 59 +2 +2 1023.4 983.3
штиль 0 16 км ясно +2.2 -2.2 73 +1 +1 1023.1 983.0 +2.2 +9.4
З 1 16 км ясно +1.7 -2.2 75 -1 -1 1022.9 983.0
штиль 0 16 км ясно +1.1 -1.7 82 0 0 1023.1 983.0
штиль 0 16 км ясно +1.1 -2.2 79 0 0 1023.2 983.0
штиль 0 16 км ясно +1.1 -2.8 75 0 0 1023.7 983.7
штиль 0 16 км ясно +1.1 -2.8 75 0 0 1023.8 983.7
штиль 0 16 км ясно +2.2 -1.1 79 +1 +1 1024.4 984.3 +2.2
нст 1 16 км ясно +8.3 -3.3 44 +7 +8 1025.1 985.0
нст 1 16 км ясно +9.4 -5.6 34 +8 +12 1025.5 985.3
штиль 0 16 км ясно +11.1 -6.1 29 +11 +22 опасность
простуды
1025.6 985.6
штиль 0 16 км ясно +12.2 -7.2 25 +12 +29 опасность
простуды
1025.3 985.3
нст 1 16 км ясно +13.3 -6.1 25 +13 +30 опасность
простуды
1024.4 984.3
З 3
{4}
16 км ясно +14.4 -5.6 25 +13 +20 1023.6 983.7 +2.2 +15.0
ЮЗ 2
{4}
16 км ясно +15.6 -3.9 26 +15 +28 опасность
простуды
1022.8 983.0
нст 1
{4}
16 км ясно +16.1 -4.4 24 +16 +30 опасность
простуды
1022.3 982.4
З 2
{3}
16 км ясно +16.1 -3.9 25 +15 +22 1021.7 981.7
З 2 16 км ясно +16.1 -3.3 26 +16 +22 1021.6 981.7
нст 1 16 км ясно +15.6 -2.8 28 +15 +19 1021.3 981.4
З 1 16 км ясно +13.9 -2.8 31 +14 +15 1021.1 981.4 +13.9 +16.7
штиль 0 16 км ясно +10.6 0.0 48 +10 +11 1021.5 981.7
штиль 0 16 км ясно +8.3 +2.2 65 +8 +8 1022.4 982.4
В 1 16 км ясно +7.2 +2.2 71 +5 +5 1023.0 983.3
Местоположение метеостанции Gwinnett County Airport: широта 33.9800 долгота -83.9600 высота над уровнем моря 323 м.
В архиве по умолчанию представлена погода в Лоренсевилле за последние 1-2 суток. Обновление информации о фактической погоде в базе происходит ежечасно! Архивные данные за месяц целиком и за предыдущие месяцы Вы можете получить, выбрав интересующий диапазон дат из раскрывающегося списка и нажав кнопку "Ввод!".
Внимание! Архив погоды МЕТАР в базе сайта по станциям, не включенным в климатический монитор, хранится не более 60 дней. Нет смысла пытаться выбрать более раннюю дату.
*Определитесь, кто Вы:
Внимание! Время в таблицах - местное (без учета летнего времени). Для получения всемирного времени необходимо вычесть поправку, которая равна -5 ч.
Смотрите также архив погоды в соседних городах и на ближайших метеорологических станциях:
Партнеры нашего сайта:      
Пояснения к столбцам:
  • Ветер - указаны скорость ветра в м/с - средняя за 10 мин, порывы в срок и между сроками (в фигурных скобках) и направление, откуда дует ветер: С - северный,
  • СВ - северо-восточный, В - восточный, ЮВ - юго-восточный, Ю - южный, ЮЗ - юго-западный, З - западный, СЗ - северо-западный.
  • Видимость - горизонтальная дальность видимости в метрах или километрах. При видимости от 1 до 10 км при отсутствии осадков обычно наблюдается дымка, при ухудшении видимости до 1 км и менее - туман. В сухую погоду видимость может ухудшаться дымом, пылью или мглою.
  • Явления - указаны атмосферные явления, наблюдавшиеся в срок или в последний час перед сроком; фигурными скобками обозначены явления, наблюдавшиеся между сроками (за 1-3 часа до срока); квадратными скобками обозначены град или гололедные отложения с указанием их диаметра в мм.
  • Облачность - указаны через наклонную черту общая и нижняя облачность в баллах и высота нижней границы облаков в метрах; квадратными скобками обозначены формы облаков: Ci - перистые, Cs - перисто-слоистые, Cc - перисто-кучевые, Ac - высококучевые, As - высокослоистые, Sc - слоисто-кучевые, Ns - слоисто-дождевые, Cu - кучевые, Cb - кучево-дождевые. Подробнее классификацию облаков см. в Атласе облаков (PDF).
  • T - Температура воздуха - температура, измеренная на высоте 2 м над землей.
  • Td - Температура точки росы - температура, при понижении до которой содержащийся в воздухе водяной пар достигнет насыщения.
  • f - Относительная влажность воздуха - влажноcть воздуха, измеренная на высоте 2 м над землей.
  • Te - Эффективная температура - температура, которую ощущает одетый по сезону человек в тени. Характеристика душности погоды. При расчете учитывается влияние влажности воздуха и скорости ветра на теплоощущения человека.
  • Tes - Эффективная температура на солнце - температура, которую ощущает человек, с поправкой на солнечный нагрев. Характеристика знойности погоды. Зависит от высоты солнца над горизонтом, облачности и скорости ветра. Ночью, в пасмурную погоду, а также при ветре 12 м/с и более поправка равна нулю.
  • P - Атмосферное давление - приведенное к уровню моря атмосферное давление.
  • Po - Атмосферное давление - измеренное на уровне метеостанции атмосферное давление.
  • Tmin - Минимальная температура - минимум температуры воздуха на высоте 2 м над землей.
  • Tmax - Максимальная температура - максимум температуры воздуха на высоте 2 м над землей.
  • R - Количество осадков - Количество выпавших осадков за период времени, мм. При наведении курсора мыши на число - период времени, за который выпало указанное количество осадков.
  • R24 - Количество осадков - Количество выпавших осадков за 24 часа, мм.
  • S - Снежный покров - Высота снежного покрова, см. При наведении курсора мыши на число - состояние снежного покрова и степень покрытия местности в баллах.